This is the latest recevied weather packets stored in our database for station/object KB1WCR. If no packets are shown the sender has not sent any weather packets the latest 10 day(s).
| Time | Temp. | Humidity | Pressure | Rain* | Wind** | Luminosity | Snow |
|---|---|---|---|---|---|---|---|
| 1777909971 | 18.33° C | 45% | 1005.7 hPa | 0 mm | - | 777 W/m² | - |
| 1777909668 | 18.33° C | 47% | 1005.7 hPa | 0 mm | - | 766 W/m² | - |
| 1777909365 | 17.78° C | 50% | 1005.6 hPa | 0 mm | - | 788 W/m² | - |
| 1777909063 | 17.78° C | 49% | 1005.9 hPa | 0 mm | - | 788 W/m² | - |
| 1777908761 | 17.78° C | 49% | 1006 hPa | 0 mm | - | 747 W/m² | - |
| 1777908458 | 17.22° C | 52% | 1006.1 hPa | 0 mm | - | 732 W/m² | - |
| 1777908154 | 17.22° C | 53% | 1006.1 hPa | 0 mm | - | 740 W/m² | - |
| 1777907850 | 17.78° C | 50% | 1006.2 hPa | 0 mm | - | 746 W/m² | - |
| 1777907546 | 17.78° C | 52% | 1006.2 hPa | 0 mm | - | 727 W/m² | - |
| 1777907242 | 16.67° C | 49% | 1006.3 hPa | 0 mm | - | 760 W/m² | - |
| 1777906939 | 16.67° C | 51% | 1006.3 hPa | 0 mm | - | 306 W/m² | - |
| 1777906637 | 16.11° C | 52% | 1006.4 hPa | 0 mm | - | 674 W/m² | - |
| 1777906332 | 16.11° C | 52% | 1006.5 hPa | 0 mm | - | 570 W/m² | - |
| 1777906030 | 16.11° C | 53% | 1006.6 hPa | 0 mm | - | 702 W/m² | - |
| 1777905726 | 15.56° C | 52% | 1006.8 hPa | 0 mm | - | 646 W/m² | - |
| 1777905423 | 15.56° C | 52% | 1006.7 hPa | 0 mm | - | 654 W/m² | - |
| 1777905121 | 15.56° C | 53% | 1006.9 hPa | 0 mm | - | 672 W/m² | - |
| 1777904817 | 15.56° C | 55% | 1006.9 hPa | 0 mm | - | 666 W/m² | - |
| 1777904515 | 15.56° C | 57% | 1006.8 hPa | 0 mm | - | 653 W/m² | - |
| 1777904211 | 15° C | 56% | 1006.9 hPa | 0 mm | - | 574 W/m² | - |
| 1777903908 | 15° C | 58% | 1007.1 hPa | 0 mm | - | 523 W/m² | - |
| 1777903605 | 14.44° C | 61% | 1007.3 hPa | 0 mm | - | 591 W/m² | - |
| 1777903300 | 13.89° C | 62% | 1007.3 hPa | 0 mm | - | 431 W/m² | - |
| 1777902998 | 13.89° C | 63% | 1007.5 hPa | 0 mm | - | 459 W/m² | - |
| 1777902694 | 13.89° C | 61% | 1007.5 hPa | 0 mm | - | 573 W/m² | - |
* Rain latest hour (hover to see other rain measurements)
** Current wind speed in m/s (hover to see current wind gust speed)